Theta_e
348 348 347 346 346 345 345 345 345 345 344 343 339 334 332 332 333 334 335 336 336 338 335 331 328 327 332 332 336 336 337 336 334 335 335 335 337 337 335 334 333 337 336
346 346 345 345 343 341 340 343 341 337 333 333 333 336 337 338 336 334 333 340 338 336 324 330 331 325 331 330 332 334 336 335 333 335 339 339 338 336 335 334 335 335 337
346 345 342 340 338 332 333 333 334 334 335 337 338 340 340 340 338 333 332 339 338 329 331 332 324 325 326 325 324 326 330 329 329 334 338 334 333 328 328 328 329 328 328
345 341 339 337 332 330 330 331 333 336 336 337 338 340 341 341 340 329 325 323 323 324 329 324 326 334 337 335 337 339 340 338 338 333 328 331 329 328 328 330 327 327 328
340 339 338 336 330 329 331 335 338 338 338 337 338 339 341 340 329 325 325 336 329 332 324 328 339 341 342 343 343 344 343 340 340 340 336 326 327 326 327 333 332 327 326
340 339 338 336 334 332 336 338 338 339 339 339 338 338 342 331 325 324 336 335 328 334 331 333 340 342 343 343 345 344 342 342 341 340 335 332 328 337 331 328 327 328 327
340 337 337 336 333 336 337 331 331 336 339 340 337 338 333 327 325 325 329 328 327 328 328 327 340 342 342 341 340 342 342 341 341 341 331 331 325 331 332 326 327 329 331
337 337 337 336 336 333 332 335 335 331 331 330 330 334 342 333 339 326 327 333 334 335 333 330 329 339 339 342 342 343 343 342 342 343 337 326 325 325 327 326 325 329 331
337 336 336 338 334 336 332 333 336 335 332 333 333 331 328 333 334 327 331 332 337 336 336 334 331 332 339 341 341 342 342 341 342 344 343 333 325 325 326 328 330 327 326
336 335 338 335 335 331 331 331 334 336 336 335 334 333 333 333 330 328 328 329 331 334 334 336 334 335 335 340 341 342 342 342 343 345 344 341 332 325 324 324 326 328 328
334 336 338 334 331 330 330 330 334 337 339 343 342 340 343 341 340 339 332 332 329 329 329 333 334 336 338 340 341 343 343 346 346 346 345 343 341 336 330 325 324 324 326
332 338 335 335 330 330 330 331 333 341 344 345 340 339 342 345 344 343 343 343 343 342 340 331 332 336 338 341 343 342 341 347 344 346 345 344 343 341 340 337 332 326 323
332 337 335 335 331 330 331 330 334 339 345 346 343 339 343 345 346 343 343 345 345 345 344 335 333 334 339 343 342 344 346 345 345 346 345 345 345 344 342 342 341 339 331
334 336 338 336 334 332 331 333 339 338 338 337 338 336 337 340 341 344 344 344 347 346 343 344 345 345 343 343 340 342 343 342 343 345 346 343 345 345 345 343 342 342 342
335 337 338 335 334 332 331 340 340 340 343 339 337 335 340 343 343 341 344 346 344 344 344 343 344 342 343 344 341 340 344 343 341 341 340 340 342 345 345 345 343 344 344
339 337 338 337 334 333 331 333 334 337 341 345 347 346 346 348 346 345 341 340 339 341 340 343 343 342 342 341 340 340 337 340 343 343 342 340 338 341 342 343 345 344 343
342 341 337 338 337 334 335 332 334 341 345 346 347 346 348 348 347 346 347 342 342 338 344 346 341 342 344 341 340 339 341 344 344 344 344 343 342 340 340 340 342 344 345
341 341 337 335 337 337 333 332 333 336 339 344 345 347 346 346 347 345 347 345 343 343 341 342 339 339 342 342 342 341 342 343 342 342 344 343 342 341 342 343 342 342 344
337 339 338 333 334 336 333 333 333 333 339 341 342 346 347 347 346 344 346 344 344 343 344 342 335 333 334 336 335 337 342 343 343 343 341 341 343 342 342 343 344 345 342
336 336 335 334 334 335 334 333 333 334 338 339 343 342 343 346 347 340 342 347 345 344 344 339 342 342 344 341 338 340 337 337 339 343 344 342 342 344 345 344 341 342 345
339 337 336 335 335 335 334 334 335 338 339 344 345 345 345 344 345 345 342 341 337 342 330 342 345 338 329 336 336 328 323 323 327 331 324 330 342 345 346 346 347 347 344
345 342 343 337 336 338 338 334 336 339 343 343 343 344 344 344 345 344 338 333 334 341 338 335 330 328 326 329 332 330 326 326 328 324 323 321 322 328 334 339 343 345 344
345 346 346 344 337 341 344 345 343 343 344 345 346 343 342 345 343 339 339 336 338 342 338 332 326 327 329 324 324 328 334 331 324 327 324 322 320 321 325 330 333 340 343
346 346 346 346 345 343 344 345 341 339 338 338 342 346 347 342 343 340 341 340 338 338 331 328 328 330 333 326 327 327 326 332 338 341 333 325 324 323 325 326 330 329 330
345 345 346 346 346 345 345 344 343 343 340 338 343 347 347 346 344 344 343 342 343 337 335 336 336 334 332 329 327 326 327 326 327 334 339 335 332 327 329 330 328 329 329
344 345 345 346 345 345 345 345 342 338 339 341 344 348 348 350 344 345 343 342 341 340 340 341 338 336 332 328 326 326 327 327 326 329 333 332 334 330 328 328 329 331 332
Wind_Speed
22 22 22 23 23 23 24 24 24 24 24 23 22 21 18 16 15 15 15 14 15 14 14 13 13 14 14 13 13 12 12 12 11 11 13 11 11 11 10 10 10 9 9
23 22 20 22 22 24 25 26 26 25 23 21 20 19 17 16 17 16 15 14 15 13 15 16 14 16 16 13 14 12 11 11 11 10 12 11 11 10 9 8 9 8 7
23 24 23 25 26 27 26 25 23 22 20 19 18 17 17 17 17 15 15 16 14 14 15 15 15 16 16 15 15 14 13 12 11 9 8 8 9 7 8 7 7 9 8
25 26 24 27 28 26 24 22 20 19 19 18 16 16 16 15 13 14 15 15 15 15 16 16 17 19 19 18 18 16 13 12 12 9 7 3 4 6 7 6 6 6 6
29 25 24 26 26 23 20 18 18 17 18 17 15 15 15 13 12 13 15 16 16 16 16 17 20 19 17 15 11 10 9 8 5 6 5 5 3 4 5 7 6 6 7
27 25 24 24 24 21 19 18 18 18 17 15 14 14 12 11 11 13 13 14 15 15 15 17 17 15 15 12 12 10 7 5 2 4 3 2 4 2 3 4 4 5 6
28 26 27 24 23 21 19 18 17 17 16 14 13 12 11 11 11 12 12 13 15 15 14 13 14 13 11 8 7 7 5 4 4 3 4 1 0 2 3 4 4 4 5
28 27 26 23 21 20 21 20 18 18 15 14 13 12 11 12 11 11 12 13 12 12 12 10 11 10 7 6 4 5 4 1 2 3 4 4 1 2 3 3 3 5 6
27 29 26 24 25 22 20 18 17 18 17 16 16 15 13 12 11 11 10 10 9 9 8 8 9 9 8 5 4 1 2 4 3 6 6 6 3 2 3 4 4 4 4
30 27 24 26 25 23 20 17 16 17 17 18 17 16 14 13 12 10 9 7 7 7 6 6 8 8 8 5 2 2 2 3 4 7 5 6 5 3 3 4 5 5 5
27 25 25 26 25 22 20 18 16 16 14 14 14 14 13 11 11 9 8 7 5 5 4 4 5 5 5 4 2 5 6 5 7 6 9 7 5 5 4 4 4 6 6
28 25 27 26 24 21 17 16 13 15 11 11 11 10 10 9 8 7 6 6 7 7 5 2 3 5 3 4 5 6 5 7 10 5 6 8 7 5 5 5 5 5 6
27 25 27 25 22 18 15 11 10 11 8 8 6 8 6 5 4 5 4 4 4 3 3 2 2 4 5 7 6 7 8 8 7 3 3 8 10 10 7 6 7 7 7
27 25 25 27 21 17 14 11 9 8 5 5 4 5 5 5 4 2 2 1 1 1 1 2 4 7 9 11 14 13 13 13 13 11 10 9 11 11 11 10 9 9 9
27 26 24 26 21 17 13 10 6 4 3 4 2 2 3 4 5 5 5 5 4 4 5 5 8 9 11 13 13 16 17 15 16 15 15 15 15 15 13 13 12 12 12
28 28 26 24 23 20 16 9 4 2 1 3 1 0 3 5 5 6 8 9 8 7 7 7 9 9 11 13 14 15 16 18 18 18 19 20 22 20 19 17 18 17 15
24 28 30 26 25 22 17 13 5 3 4 3 3 3 7 10 9 9 8 8 7 5 5 9 11 12 13 15 15 14 16 16 18 19 20 20 20 22 24 24 23 23 23
21 26 32 30 27 24 21 16 11 6 8 6 7 7 8 12 11 8 3 2 3 6 9 9 15 14 13 15 16 15 16 17 18 19 19 19 20 23 25 24 24 25 25
16 22 30 30 26 23 20 17 15 12 12 10 13 13 11 13 12 13 8 6 5 8 8 12 16 12 12 14 19 15 14 18 19 18 18 17 18 22 24 25 25 25 25
17 18 24 27 26 24 20 19 18 16 14 15 14 13 12 14 15 13 12 9 9 9 7 11 14 15 18 14 12 15 16 15 15 14 14 15 15 16 19 21 22 26 26
21 21 22 24 24 23 23 24 19 17 14 13 12 15 14 16 17 18 17 14 9 8 12 15 11 12 10 12 17 17 17 17 11 10 17 18 18 18 18 15 17 20 22
25 24 23 22 22 21 20 22 19 14 14 15 15 13 14 15 18 17 14 13 14 12 12 10 7 8 10 11 16 18 14 23 13 25 21 25 21 20 19 18 20 18 20
31 29 27 24 25 22 19 16 16 15 16 17 14 11 12 18 17 7 9 9 7 10 11 9 7 10 13 11 14 15 11 14 33 29 32 27 29 29 25 23 21 20 22
35 32 28 26 23 22 20 20 19 17 18 16 18 18 16 11 11 10 9 9 7 9 9 8 10 13 17 19 19 18 19 24 30 32 29 37 35 32 31 27 26 24 24
34 33 30 27 22 20 18 19 20 21 18 16 18 18 16 14 12 10 11 11 12 13 14 14 15 18 19 22 22 23 27 28 28 30 37 39 41 38 34 31 29 28 24
37 34 30 28 25 19 18 19 23 22 21 22 19 18 17 18 15 16 15 16 15 19 24 23 21 23 23 23 23 22 24 28 33 33 35 39 39 43 37 33 30 27 23
Wind_Direction
119 121 124 121 120 122 124 125 124 122 124 127 126 125 126 127 128 127 122 124 119 117 112 110 116 115 114 120 118 118 117 118 119 127 127 126 124 120 126 132 138 133 138
127 128 127 126 123 122 121 122 123 123 125 125 125 126 126 128 127 125 121 123 119 117 111 113 116 116 117 116 117 118 115 112 112 125 129 127 127 126 137 138 146 153 156
133 133 129 128 126 121 119 119 120 123 125 124 124 123 126 130 130 125 121 120 117 118 121 120 119 115 117 120 117 117 115 115 101 102 120 115 126 128 139 149 154 155 163
133 129 135 132 129 125 121 118 122 126 126 125 124 122 123 122 122 123 125 123 121 123 121 120 120 116 116 117 118 115 107 105 94 88 88 112 118 127 139 145 150 153 157
134 137 139 138 136 131 126 123 124 125 128 127 120 119 122 123 121 121 120 115 119 123 122 126 124 122 121 122 127 123 120 120 107 86 100 94 89 130 149 149 156 158 157
138 141 141 141 141 134 128 124 123 122 121 121 118 118 117 115 117 123 119 115 114 119 122 131 133 130 127 121 123 127 132 133 112 59 51 78 133 126 142 155 154 159 154
147 144 142 141 141 135 129 120 117 118 116 112 112 114 112 111 114 118 117 111 109 111 120 134 147 144 140 127 118 117 127 113 84 53 43 45 38 201 193 181 179 176 173
148 144 142 142 136 129 123 119 115 112 112 115 114 113 106 101 108 112 116 113 107 109 115 129 149 160 162 146 116 103 69 43 49 17 17 23 290 245 241 234 212 190 191
153 145 144 144 139 132 130 123 120 119 113 108 101 98 96 97 99 107 111 111 105 106 115 123 144 168 175 176 151 117 27 58 13 333 359 1 350 289 251 248 235 242 232
155 151 150 146 141 135 125 119 115 114 111 105 99 93 91 91 93 100 107 113 119 118 118 129 140 153 176 186 228 227 265 304 322 309 301 342 345 324 292 276 264 249 242
164 155 153 151 144 137 130 123 122 120 114 108 100 97 92 89 87 81 95 101 103 110 117 133 147 156 159 175 276 270 279 270 320 295 283 289 322 318 312 300 275 268 265
165 159 159 159 152 148 141 124 129 124 122 114 107 105 104 101 99 94 90 94 93 89 89 129 173 186 227 278 292 267 257 285 313 290 252 263 287 290 296 300 303 281 268
170 171 168 167 164 162 142 122 132 129 124 105 114 113 108 87 83 89 105 85 79 62 89 159 226 258 257 279 284 272 268 283 311 253 293 295 286 277 277 274 298 292 283
180 180 178 178 179 172 151 139 139 131 126 113 103 97 78 54 43 51 35 355 345 334 291 303 285 271 274 275 273 277 276 276 276 263 269 277 279 266 267 272 270 282 279
188 186 185 184 189 184 169 151 144 134 143 132 124 74 34 23 13 342 322 322 313 318 317 311 312 298 286 289 284 283 280 279 275 274 275 277 276 273 274 271 272 272 277
195 193 189 188 196 196 188 184 162 184 210 188 164 126 307 335 343 9 325 307 313 318 338 327 303 290 285 284 282 281 276 271 272 272 276 276 269 268 268 273 279 274 273
197 196 196 191 196 202 203 207 213 220 250 318 288 300 308 307 299 330 343 331 330 316 294 291 303 285 281 280 287 278 275 276 273 275 274 275 273 266 265 268 268 273 276
193 195 192 195 199 203 205 211 220 229 253 278 283 292 294 305 278 280 319 343 203 245 261 296 303 295 298 298 297 292 293 291 286 283 280 279 276 274 267 267 268 269 266
178 187 193 199 203 207 211 224 236 251 251 267 271 276 286 303 306 298 289 287 282 275 305 280 302 316 337 310 283 286 300 297 294 290 292 289 284 279 274 268 267 273 272
174 177 186 195 201 209 223 232 238 245 255 266 262 276 288 296 304 317 292 303 285 287 307 295 296 298 312 331 313 304 314 309 310 302 301 292 289 289 285 278 276 268 268
183 183 186 193 194 199 214 222 227 245 261 253 275 293 296 301 306 304 308 282 293 264 309 281 300 312 322 322 315 332 343 347 2 5 335 310 298 294 292 297 286 277 274
192 193 195 195 197 198 202 214 233 245 252 256 262 284 299 309 312 302 306 275 270 249 265 277 291 309 327 325 318 329 335 342 342 326 332 330 324 308 302 296 287 280 276
204 204 202 198 200 203 207 216 229 237 247 256 261 280 307 311 320 295 305 302 264 249 254 275 303 309 310 322 323 322 324 313 323 324 319 319 317 316 314 306 294 284 276
209 209 211 211 211 215 220 221 227 243 258 271 281 287 294 299 318 306 306 300 253 258 264 280 285 293 295 310 314 316 312 311 312 314 311 309 309 307 307 306 304 294 285
215 216 217 218 223 228 237 243 252 258 261 272 278 287 293 296 289 293 288 270 269 276 281 285 294 295 295 299 306 311 311 310 307 303 303 308 305 304 303 303 304 304 296
221 219 220 225 228 232 242 252 261 269 276 278 278 286 290 295 280 279 279 273 280 288 289 287 290 290 294 294 299 302 304 308 310 311 307 305 304 306 305 303 300 303 304